KCRW Airport (Yeager) Information

FAA: CRW - ICAO: KCRW

KCRW Airport Location

State West Virginia
County Kanawha
City Charleston
KCRW Airport is 3 miles east of Charleston, WV.
Latitude 38-22-33.6455N
Longitude 081-35-34.4144W
Elevation 947ft

KCRW Airport METARs

METAR KCRW 060754Z 36006KT 6SM BR FEW000 BKN090 20/20 A2997 RMK AO2 SLP141 FG FEW000 T02000200 $
Altimeter 29.97"
Temperature 20.0°C (68.0°F)
Wind 360° at 6KT
Clouds few at 0ft broken at 9,000ft
Visibility 6.0mi
Time observed: 2022-07-06T07:54:00Z

KCRW Airport Details

Status Operational
Activation August 1947
Ownership Public
Usage Public
Chart CINCINNATI
ATC on-site Yes
Beacon schedule sunset-sunrise
Beacon color clear green

KCRW Airport Contacts

Owner CENTRAL WVA REG ARPT AUTH
Owner address 100 AIRPORT ROAD SUITE 175, CHARLESTON, WV 25311
Owner phone (304) 344-8033
Manager KENNETH GORDON
Manager address N/A, N/A
Manager phone 509-577-3719

KCRW Airport (Yeager) Radio Frequencies

KCRW (Airport) Radio Frequencies

UNICOM 122.95
Common traffic advisory frequency (CTAF) N/A